TimeCDT,TemperatureF,Dew PointF,Humidity,Sea Level PressureIn,VisibilityMPH,Wind Direction,Wind SpeedMPH,Gust SpeedMPH,PrecipitationIn,Events,Conditions,WindDirDegrees,DateUTC
12:15 AM,59.2,55.8,88,29.78,10.0,WSW,8.1,-,N/A,,Overcast,250,2013-05-23 05:15:00
12:35 AM,59.5,55.8,87,29.77,10.0,West,10.4,-,N/A,,Overcast,270,2013-05-23 05:35:00
12:55 AM,59.2,55.9,89,29.77,10.0,West,11.5,-,N/A,,Light Drizzle,270,2013-05-23 05:55:00
1:15 AM,59.0,56.1,90,29.78,10.0,West,9.2,-,N/A,,Overcast,270,2013-05-23 06:15:00
1:35 AM,59.0,55.8,89,29.78,10.0,West,9.2,-,N/A,,Overcast,260,2013-05-23 06:35:00
1:55 AM,58.8,55.8,90,29.78,10.0,West,9.2,-,N/A,,Overcast,270,2013-05-23 06:55:00
2:15 AM,58.6,55.4,89,29.78,10.0,West,8.1,-,N/A,,Overcast,260,2013-05-23 07:15:00
2:35 AM,58.3,55.2,90,29.78,10.0,West,8.1,-,N/A,,Overcast,270,2013-05-23 07:35:00
2:55 AM,58.1,54.7,88,29.78,10.0,West,8.1,-,N/A,,Overcast,270,2013-05-23 07:55:00
3:15 AM,57.9,54.9,90,29.79,10.0,West,6.9,-,N/A,,Overcast,270,2013-05-23 08:15:00
3:35 AM,57.6,55.0,91,29.79,4.0,West,6.9,-,N/A,Rain,Rain,270,2013-05-23 08:35:00
3:55 AM,57.2,55.4,94,29.80,4.0,West,5.8,-,N/A,,Light Drizzle,260,2013-05-23 08:55:00
4:15 AM,56.7,55.4,96,29.80,5.0,West,8.1,-,N/A,,Overcast,270,2013-05-23 09:15:00
4:35 AM,55.9,54.5,95,29.82,2.5,NE,16.1,-,0.10,Rain,Heavy Rain,50,2013-05-23 09:35:00
4:55 AM,53.8,52.3,95,29.83,5.0,NE,12.7,-,0.16,Rain,Rain,50,2013-05-23 09:55:00
5:15 AM,53.6,52.5,96,29.84,5.0,ENE,13.8,-,0.02,Rain,Light Rain,60,2013-05-23 10:15:00
5:35 AM,53.6,52.3,95,29.85,7.0,NE,12.7,-,0.04,Rain,Light Rain,50,2013-05-23 10:35:00
5:55 AM,53.6,52.2,95,29.86,10.0,NE,10.4,-,0.06,Rain,Light Rain,40,2013-05-23 10:55:00
6:15 AM,53.6,52.2,95,29.88,10.0,NE,12.7,-,0.01,Rain,Light Rain,40,2013-05-23 11:15:00
6:35 AM,53.8,52.7,96,29.89,7.0,NE,11.5,-,0.01,Rain,Light Rain,40,2013-05-23 11:35:00
6:55 AM,54.0,52.2,94,29.90,10.0,NE,12.7,-,0.01,,Overcast,40,2013-05-23 11:55:00
7:15 AM,53.6,51.8,94,29.91,7.0,NNE,13.8,19.6,N/A,,Overcast,30,2013-05-23 12:15:00
7:35 AM,53.8,52.0,94,29.93,5.0,NNE,12.7,-,N/A,,Overcast,30,2013-05-23 12:35:00
7:55 AM,52.9,51.6,95,29.94,2.0,NNE,12.7,-,N/A,Rain,Rain,30,2013-05-23 12:55:00
8:15 AM,53.1,51.8,95,29.95,2.5,NNE,11.5,-,N/A,Rain,Rain,20,2013-05-23 13:15:00
8:35 AM,52.7,51.3,95,29.97,2.0,NNE,13.8,21.9,N/A,Rain,Light Rain,30,2013-05-23 13:35:00
8:55 AM,52.5,50.5,93,29.99,10.0,North,13.8,-,N/A,,Overcast,10,2013-05-23 13:55:00
9:15 AM,52.9,50.4,91,29.99,10.0,North,17.3,21.9,N/A,,Overcast,10,2013-05-23 14:15:00
9:35 AM,52.9,49.6,89,30.00,10.0,NNE,19.6,-,N/A,,Overcast,20,2013-05-23 14:35:00
9:55 AM,52.7,49.8,90,30.01,7.0,North,17.3,23.0,N/A,,Overcast,10,2013-05-23 14:55:00
10:15 AM,52.7,48.6,86,30.02,10.0,North,16.1,21.9,N/A,,Overcast,10,2013-05-23 15:15:00
10:35 AM,52.5,48.6,86,30.03,10.0,North,19.6,23.0,N/A,,Overcast,360,2013-05-23 15:35:00
10:55 AM,54.5,49.1,82,30.04,10.0,North,18.4,25.3,N/A,,Overcast,10,2013-05-23 15:55:00
11:35 AM,53.6,48.7,84,30.06,10.0,North,19.6,24.2,N/A,,Overcast,10,2013-05-23 16:35:00
11:55 AM,55.2,48.9,79,30.06,10.0,North,21.9,-,N/A,,Overcast,360,2013-05-23 16:55:00
12:15 PM,55.0,48.2,78,30.07,10.0,NNE,17.3,-,N/A,,Overcast,20,2013-05-23 17:15:00
12:35 PM,53.6,48.6,83,30.08,10.0,North,16.1,-,N/A,,Overcast,360,2013-05-23 17:35:00
12:55 PM,54.9,48.2,78,30.09,10.0,NNE,12.7,24.2,N/A,,Overcast,20,2013-05-23 17:55:00
1:15 PM,55.4,48.7,78,30.09,10.0,North,18.4,-,N/A,,Overcast,360,2013-05-23 18:15:00
1:35 PM,55.0,48.2,78,30.10,10.0,NNE,18.4,-,N/A,,Overcast,20,2013-05-23 18:35:00
1:55 PM,54.7,47.5,77,30.11,10.0,NNE,19.6,24.2,N/A,,Overcast,30,2013-05-23 18:55:00
2:15 PM,55.6,48.2,76,30.12,10.0,North,18.4,24.2,N/A,,Overcast,360,2013-05-23 19:15:00
2:35 PM,55.4,47.7,75,30.12,10.0,North,17.3,26.5,N/A,,Overcast,10,2013-05-23 19:35:00
2:55 PM,55.9,48.0,75,30.14,10.0,North,11.5,-,N/A,,Overcast,10,2013-05-23 19:55:00
3:15 PM,55.9,47.8,74,30.14,10.0,North,11.5,-,N/A,,Overcast,350,2013-05-23 20:15:00
3:35 PM,57.2,48.0,71,30.14,10.0,NNE,13.8,-,N/A,,Mostly Cloudy,20,2013-05-23 20:35:00
3:55 PM,57.7,48.6,71,30.14,10.0,NNE,9.2,18.4,N/A,,Mostly Cloudy,30,2013-05-23 20:55:00
4:15 PM,58.8,48.9,70,30.15,10.0,NNE,11.5,-,N/A,,Scattered Clouds,20,2013-05-23 21:15:00
4:35 PM,59.2,48.2,67,30.15,10.0,NNE,13.8,19.6,N/A,,Scattered Clouds,20,2013-05-23 21:35:00
4:55 PM,58.8,48.7,69,30.16,10.0,NNE,15.0,-,N/A,,Scattered Clouds,20,2013-05-23 21:55:00
5:15 PM,59.0,47.7,66,30.16,10.0,NE,13.8,19.6,N/A,,Scattered Clouds,50,2013-05-23 22:15:00
5:35 PM,58.5,46.0,63,30.17,10.0,NNE,13.8,19.6,N/A,,Scattered Clouds,20,2013-05-23 22:35:00
5:55 PM,58.8,46.0,63,30.18,10.0,NNE,12.7,21.9,N/A,,Mostly Cloudy,20,2013-05-23 22:55:00
6:15 PM,58.1,45.7,63,30.18,10.0,NE,16.1,-,N/A,,Scattered Clouds,40,2013-05-23 23:15:00
6:35 PM,58.1,45.1,62,30.20,10.0,NE,15.0,-,N/A,,Clear,40,2013-05-23 23:35:00
6:55 PM,57.6,45.3,64,30.20,10.0,NE,12.7,17.3,N/A,,Clear,40,2013-05-23 23:55:00
7:15 PM,56.8,45.0,64,30.21,10.0,NE,11.5,-,N/A,,Clear,40,2013-05-24 00:15:00
7:35 PM,56.3,44.6,65,30.21,10.0,NE,11.5,-,N/A,,Clear,40,2013-05-24 00:35:00
7:55 PM,54.7,45.3,71,30.21,10.0,NE,9.2,-,N/A,,Clear,40,2013-05-24 00:55:00
8:15 PM,53.4,45.5,75,30.21,10.0,NE,6.9,-,N/A,,Clear,40,2013-05-24 01:15:00
8:35 PM,52.3,45.1,76,30.23,10.0,NE,9.2,-,N/A,,Clear,40,2013-05-24 01:35:00
8:55 PM,51.8,44.8,77,30.24,10.0,ENE,9.2,-,N/A,,Clear,70,2013-05-24 01:55:00
9:15 PM,50.5,44.8,81,30.24,10.0,East,10.4,-,N/A,,Clear,80,2013-05-24 02:15:00
9:35 PM,49.6,44.6,83,30.26,10.0,ENE,9.2,-,N/A,,Clear,70,2013-05-24 02:35:00
9:55 PM,49.1,44.8,85,30.27,10.0,East,9.2,-,N/A,,Clear,80,2013-05-24 02:55:00
10:15 PM,47.7,43.7,86,30.27,10.0,East,8.1,-,N/A,,Clear,80,2013-05-24 03:15:00
10:35 PM,46.4,41.4,83,30.28,10.0,ENE,6.9,-,N/A,,Clear,70,2013-05-24 03:35:00
10:55 PM,45.0,40.8,85,30.28,10.0,ENE,4.6,-,N/A,,Clear,70,2013-05-24 03:55:00
11:15 PM,43.9,40.3,87,30.28,10.0,ENE,4.6,-,N/A,,Clear,70,2013-05-24 04:15:00
11:35 PM,43.9,39.2,84,30.29,10.0,East,4.6,-,N/A,,Clear,80,2013-05-24 04:35:00
11:55 PM,42.8,37.6,82,30.30,10.0,East,5.8,-,N/A,,Clear,80,2013-05-24 04:55:00